Time,TemperatureF,DewpointF,PressureIn,WindDirection,WindDirectionDegrees,WindSpeedMPH,WindSpeedGustMPH,Humidity,HourlyPrecipIn,Conditions,Clouds,dailyrainin,SolarRadiationWatts/m^2,SoftwareType,DateUTC
2013-07-06 00:00:00,67.0,56.0,-100.00,SSW,202,5.0,-999.0,67,-99.99,,,-99.99,0.000000,,2013-07-06 05:00:00,
2013-07-06 00:34:00,67.0,56.0,-100.00,SSW,202,5.0,-999.0,67,-99.99,,,-99.99,0.000000,,2013-07-06 05:34:00,
2013-07-06 00:43:00,67.0,56.0,-100.00,SSW,202,5.0,-999.0,67,-99.99,,,-99.99,0.000000,,2013-07-06 05:43:00,
2013-07-06 00:53:00,67.0,56.0,-100.00,SSW,202,5.0,-999.0,67,-99.99,,,-99.99,0.000000,,2013-07-06 05:53:00,
2013-07-06 01:00:00,67.0,56.0,-100.00,SSW,202,5.0,-999.0,68,-99.99,,,-99.99,0.000000,,2013-07-06 06:00:00,
2013-07-06 01:43:00,67.0,56.0,-100.00,SSW,202,5.0,-999.0,68,-99.99,,,-99.99,0.000000,,2013-07-06 06:43:00,
2013-07-06 01:53:00,67.0,56.0,-100.00,SSW,202,5.0,-999.0,68,-99.99,,,-99.99,0.000000,,2013-07-06 06:53:00,
2013-07-06 02:00:00,67.0,57.0,-100.00,SSW,202,4.0,-999.0,68,-99.99,,,-99.99,0.000000,,2013-07-06 07:00:00,
2013-07-06 02:44:00,67.0,57.0,-100.00,SSW,202,4.0,-999.0,68,-99.99,,,-99.99,0.000000,,2013-07-06 07:44:00,
2013-07-06 02:52:00,67.0,57.0,-100.00,SSW,202,4.0,-999.0,68,-99.99,,,-99.99,0.000000,,2013-07-06 07:52:00,
2013-07-06 03:00:00,66.0,57.0,-100.00,South,180,3.0,-999.0,72,-99.99,,,-99.99,0.000000,,2013-07-06 08:00:00,
2013-07-06 03:43:00,66.0,57.0,-100.00,South,180,3.0,-999.0,72,-99.99,,,-99.99,0.000000,,2013-07-06 08:43:00,
2013-07-06 03:54:00,66.0,57.0,-100.00,South,180,3.0,-999.0,72,-99.99,,,-99.99,0.000000,,2013-07-06 08:54:00,
2013-07-06 04:00:00,64.0,57.0,-100.00,SSW,202,1.0,-999.0,76,-99.99,,,-99.99,0.000000,,2013-07-06 09:00:00,
2013-07-06 04:43:00,64.0,57.0,-100.00,SSW,202,1.0,-999.0,76,-99.99,,,-99.99,0.000000,,2013-07-06 09:43:00,
2013-07-06 04:53:00,64.0,57.0,-100.00,SSW,202,1.0,-999.0,76,-99.99,,,-99.99,0.000000,,2013-07-06 09:53:00,
2013-07-06 05:00:00,65.0,57.0,-100.00,SSW,202,2.0,-999.0,75,-99.99,,,-99.99,0.000000,,2013-07-06 10:00:00,
2013-07-06 05:43:00,65.0,57.0,-100.00,SSW,202,2.0,-999.0,75,-99.99,,,-99.99,0.000000,,2013-07-06 10:43:00,
2013-07-06 05:53:00,65.0,57.0,-100.00,SSW,202,2.0,-999.0,75,-99.99,,,-99.99,0.000000,,2013-07-06 10:53:00,
2013-07-06 06:00:00,62.0,57.0,-100.00,SE,135,1.0,-999.0,82,-99.99,,,-99.99,23.200001,,2013-07-06 11:00:00,
2013-07-06 06:43:00,62.0,57.0,-100.00,SE,135,1.0,-999.0,82,-99.99,,,-99.99,23.200001,,2013-07-06 11:43:00,
2013-07-06 06:53:00,62.0,57.0,-100.00,SE,135,1.0,-999.0,82,-99.99,,,-99.99,23.200001,,2013-07-06 11:53:00,
2013-07-06 07:00:00,66.0,58.0,-100.00,SW,225,1.0,-999.0,76,-99.99,,,-99.99,118.320000,,2013-07-06 12:00:00,
2013-07-06 07:43:00,66.0,58.0,-100.00,SW,225,1.0,-999.0,76,-99.99,,,-99.99,118.320000,,2013-07-06 12:43:00,
2013-07-06 07:52:00,66.0,58.0,-100.00,SW,225,1.0,-999.0,76,-99.99,,,-99.99,118.320000,,2013-07-06 12:52:00,
2013-07-06 08:00:00,72.0,61.0,-100.00,SSW,202,5.0,-999.0,67,-99.99,,,-99.99,241.279999,,2013-07-06 13:00:00,
2013-07-06 08:43:00,72.0,61.0,-100.00,SSW,202,5.0,-999.0,67,-99.99,,,-99.99,241.279999,,2013-07-06 13:43:00,
2013-07-06 08:52:00,72.0,61.0,-100.00,SSW,202,5.0,-999.0,67,-99.99,,,-99.99,241.279999,,2013-07-06 13:52:00,
2013-07-06 09:00:00,75.0,61.0,-100.00,SW,225,6.0,-999.0,62,-99.99,,,-99.99,468.640015,,2013-07-06 14:00:00,
2013-07-06 09:34:00,75.0,61.0,-100.00,SW,225,6.0,-999.0,62,-99.99,,,-99.99,468.640015,,2013-07-06 14:34:00,
2013-07-06 09:42:00,75.0,61.0,-100.00,SW,225,6.0,-999.0,62,-99.99,,,-99.99,468.640015,,2013-07-06 14:42:00,
2013-07-06 09:53:00,75.0,61.0,-100.00,SW,225,6.0,-999.0,62,-99.99,,,-99.99,468.640015,,2013-07-06 14:53:00,
2013-07-06 10:00:00,79.0,61.0,-100.00,SW,225,8.0,-999.0,53,-99.99,,,-99.99,628.719971,,2013-07-06 15:00:00,
2013-07-06 10:43:00,79.0,61.0,-100.00,SW,225,8.0,-999.0,53,-99.99,,,-99.99,628.719971,,2013-07-06 15:43:00,
2013-07-06 10:53:00,79.0,61.0,-100.00,SW,225,8.0,-999.0,53,-99.99,,,-99.99,628.719971,,2013-07-06 15:53:00,
2013-07-06 11:00:00,81.0,61.0,-100.00,WSW,247,9.0,-999.0,49,-99.99,,,-99.99,758.640015,,2013-07-06 16:00:00,
2013-07-06 12:00:00,84.0,62.0,-100.00,SSW,202,7.0,-999.0,48,-99.99,,,-99.99,751.679993,,2013-07-06 17:00:00,
2013-07-06 13:00:00,83.0,64.0,-100.00,South,180,7.0,-999.0,52,-99.99,,,-99.99,779.520020,,2013-07-06 18:00:00,
2013-07-06 14:00:00,82.0,63.0,-100.00,South,180,8.0,-999.0,52,-99.99,,,-99.99,872.320007,,2013-07-06 19:00:00,
2013-07-06 15:00:00,81.0,62.0,-100.00,South,180,9.0,-999.0,51,-99.99,,,-99.99,828.239990,,2013-07-06 20:00:00,
2013-07-06 15:52:00,81.0,62.0,-100.00,South,180,9.0,-999.0,51,-99.99,,,-99.99,828.239990,,2013-07-06 20:52:00,
2013-07-06 16:00:00,80.0,59.0,-100.00,South,180,11.0,-999.0,49,-99.99,,,-99.99,731.960022,,2013-07-06 21:00:00,
2013-07-06 17:00:00,79.0,59.0,-100.00,SSW,202,10.0,-999.0,49,-99.99,,,-99.99,598.559998,,2013-07-06 22:00:00,
2013-07-06 18:00:00,78.0,60.0,-100.00,SSW,202,11.0,-999.0,53,-99.99,,,-99.99,439.640015,,2013-07-06 23:00:00,
2013-07-06 18:59:00,78.0,60.0,-100.00,SSW,202,11.0,-999.0,53,-99.99,,,-99.99,439.640015,,2013-07-06 23:59:00,
2013-07-06 20:00:00,75.0,59.0,-100.00,South,180,6.0,-999.0,58,-99.99,,,-99.99,117.160004,,2013-07-07 01:00:00,
2013-07-06 20:59:00,75.0,59.0,-100.00,South,180,6.0,-999.0,58,-99.99,,,-99.99,117.160004,,2013-07-07 01:59:00,
2013-07-06 21:00:00,71.0,59.0,-100.00,South,180,4.0,-999.0,66,-99.99,,,-99.99,10.440000,,2013-07-07 02:00:00,
2013-07-06 21:54:00,71.0,59.0,-100.00,South,180,4.0,-999.0,66,-99.99,,,-99.99,10.440000,,2013-07-07 02:54:00,
2013-07-06 22:00:00,69.0,59.0,-100.00,SSW,202,5.0,-999.0,69,-99.99,,,-99.99,0.000000,,2013-07-07 03:00:00,
2013-07-06 22:55:00,69.0,59.0,-100.00,SSW,202,5.0,-999.0,69,-99.99,,,-99.99,0.000000,,2013-07-07 03:55:00,
2013-07-06 23:00:00,68.0,59.0,-100.00,SSW,202,5.0,-999.0,72,-99.99,,,-99.99,0.000000,,2013-07-07 04:00:00,
2013-07-06 23:41:00,68.0,59.0,-100.00,SSW,202,5.0,-999.0,72,-99.99,,,-99.99,0.000000,,2013-07-07 04:41:00,
2013-07-06 23:51:00,68.0,59.0,-100.00,SSW,202,5.0,-999.0,72,-99.99,,,-99.99,0.000000,,2013-07-07 04:51:00,